カタログに戻る

STARLINK-3922

運用中通信VLEO
NORAD 52584·PAYLOAD·🇺🇸 United States

打ち上げ May 13, 2022 から Vandenberg Space Force Base

Loading…

次のパス (今後24時間)

TLE

最新Source: CelesTrak SupGP

元期: Sep 14, 2026, 20:31 UTC

1 52584C 22051BA  26257.85534722 -.00039237  00000+0 -11227-2 0  2579
2 52584  53.1590 343.8736 0001238  81.4359 163.0132 15.35416531    18

AllMySatでSTARLINK-3922をリアルタイム追跡

Download on the App Store